This is the latest recevied weather packets stored in our database for station/object K1RFS. If no packets are shown the sender has not sent any weather packets the latest 1 day(s).
| Time | Temp. | Humidity | Pressure | Rain* | Wind** | Luminosity | Snow |
|---|---|---|---|---|---|---|---|
| 1778012115 | 12.78° C | 52% | 995.8 hPa | 0 mm | 0.45 m/s, 249° | 196 W/m² | - |
| 1778011812 | 12.78° C | 52% | 996 hPa | 0 mm | 1.34 m/s, 256° | 174 W/m² | - |
| 1778011510 | 12.78° C | 52% | 995.9 hPa | 0 mm | 0 m/s | 195 W/m² | - |
| 1778011207 | 12.22° C | 53% | 995.9 hPa | 0 mm | 1.34 m/s, 179° | 157 W/m² | - |
| 1778010903 | 12.22° C | 53% | 995.9 hPa | 0 mm | 0.45 m/s, 196° | 142 W/m² | - |
| 1778010600 | 12.22° C | 54% | 995.9 hPa | 0 mm | 1.34 m/s, 196° | 142 W/m² | - |
| 1778010293 | 12.22° C | 54% | 995.8 hPa | 0 mm | 0.45 m/s, 186° | 163 W/m² | - |
| 1778010001 | 12.22° C | 54% | 995.7 hPa | 0 mm | 0.45 m/s, 202° | 137 W/m² | - |
| 1778009690 | 12.22° C | 54% | 995.9 hPa | 0 mm | 0.45 m/s, 191° | 123 W/m² | - |
| 1778009387 | 12.78° C | 54% | 995.8 hPa | 0 mm | 0.89 m/s, 173° | 128 W/m² | - |
| 1778009086 | 12.78° C | 53% | 995.8 hPa | 0 mm | 0.89 m/s, 200° | 182 W/m² | - |
| 1778008783 | 12.78° C | 54% | 995.7 hPa | 0 mm | 1.79 m/s, 205° | 241 W/m² | - |
| 1778008482 | 12.22° C | 54% | 995.6 hPa | 0 mm | 0.89 m/s, 186° | 243 W/m² | - |
| 1778008178 | 12.22° C | 56% | 995.8 hPa | 0 mm | 0.89 m/s, 164° | 201 W/m² | - |
| 1778007873 | 12.22° C | 56% | 995.8 hPa | 0 mm | 1.34 m/s, 205° | 146 W/m² | - |
| 1778007569 | 12.22° C | 56% | 995.7 hPa | 0 mm | 0 m/s | 144 W/m² | - |
| 1778007267 | 12.22° C | 56% | 995.8 hPa | 0 mm | 1.34 m/s, 194° | 174 W/m² | - |
| 1778006963 | 12.22° C | 56% | 995.6 hPa | 0 mm | 0.45 m/s, 185° | 172 W/m² | - |
| 1778006660 | 12.22° C | 56% | 995.8 hPa | 0 mm | 1.34 m/s, 184° | 158 W/m² | - |
| 1778006356 | 12.22° C | 55% | 995.8 hPa | 0 mm | 1.34 m/s, 146° | 190 W/m² | - |
| 1778006053 | 12.22° C | 55% | 995.8 hPa | 0 mm | 0.89 m/s, 223° | 190 W/m² | - |
| 1778005749 | 12.78° C | 55% | 995.7 hPa | 0 mm | 0.89 m/s, 183° | 223 W/m² | - |
| 1778005446 | 12.78° C | 55% | 995.7 hPa | 0 mm | 1.34 m/s, 254° | 378 W/m² | - |
| 1778005143 | 12.22° C | 57% | 995.6 hPa | 0 mm | 0 m/s | 339 W/m² | - |
| 1778004840 | 11.67° C | 58% | 995.8 hPa | 0 mm | 1.79 m/s, 203° | 367 W/m² | - |
* Rain latest hour (hover to see other rain measurements)
** Current wind speed in m/s (hover to see current wind gust speed)